Location: Glasgow
(55.8642°N, 4.2518°W)
Time: 14:41:53
(UTC+01:00)

ISS - Pass Details

Date: 11 October 2017
Orbit: 401 x 408 km, 51.6° (Epoch: 22 October)

Event Time Altitude Azimuth Distance (km) Brightness Sun altitude
Rises 19:10:56 0° 271° (W) 2,326 2.7 -7.1°
Reaches altitude 10° 19:13:11 10° 259° (WSW) 1,466 0.7 -7.4°
Maximum altitude 19:16:02 27° 199° (SSW) 812 -2.1 -7.8°
Drops below altitude 10° 19:18:53 10° 139° (SE) 1,466 -1.4 -8.2°
Enters shadow 19:19:56 - 132° (SE) 1,855 -0.9 -8.3°
